TimeCDT,TemperatureF,Dew PointF,Humidity,Sea Level PressureIn,VisibilityMPH,Wind Direction,Wind SpeedMPH,Gust SpeedMPH,PrecipitationIn,Events,Conditions,WindDirDegrees,DateUTC
12:15 AM,74.7,72.7,94,29.78,7.0,SE,12.7,25.3,N/A,,Overcast,140,2013-04-10 05:15:00
12:35 AM,74.5,73.0,95,29.77,7.0,SE,16.1,24.2,N/A,,Overcast,130,2013-04-10 05:35:00
12:55 AM,74.5,74.3,99,29.77,7.0,SE,17.3,23.0,N/A,,Overcast,130,2013-04-10 05:55:00
1:15 AM,74.5,74.5,100,29.77,7.0,SE,18.4,24.2,N/A,,Overcast,130,2013-04-10 06:15:00
1:35 AM,74.5,74.5,100,29.76,7.0,SE,19.6,27.6,N/A,,Overcast,130,2013-04-10 06:35:00
1:55 AM,74.7,74.7,100,29.77,7.0,ESE,17.3,23.0,N/A,,Overcast,120,2013-04-10 06:55:00
2:15 AM,74.5,74.5,100,29.77,7.0,ESE,16.1,21.9,N/A,,Overcast,120,2013-04-10 07:15:00
2:35 AM,73.4,73.4,100,29.77,7.0,ESE,15.0,24.2,N/A,,Overcast,120,2013-04-10 07:35:00
2:55 AM,74.3,74.3,100,29.76,7.0,ESE,15.0,-,N/A,,Overcast,120,2013-04-10 07:55:00
3:15 AM,74.3,74.3,100,29.77,7.0,ESE,12.7,-,N/A,,Overcast,110,2013-04-10 08:15:00
3:35 AM,74.3,74.3,100,29.75,7.0,ESE,11.5,-,N/A,,Overcast,120,2013-04-10 08:35:00
3:55 AM,74.3,74.3,100,29.73,5.0,ESE,13.8,19.6,N/A,,Overcast,120,2013-04-10 08:55:00
4:15 AM,74.1,74.1,100,29.72,7.0,SE,13.8,-,N/A,,Overcast,130,2013-04-10 09:15:00
4:35 AM,74.1,74.1,100,29.72,7.0,SE,12.7,-,N/A,,Overcast,130,2013-04-10 09:35:00
4:55 AM,74.3,74.3,100,29.71,7.0,SE,15.0,20.7,N/A,,Overcast,130,2013-04-10 09:55:00
5:15 AM,74.3,74.3,100,29.70,7.0,SE,16.1,25.3,N/A,,Overcast,140,2013-04-10 10:15:00
5:35 AM,74.3,74.3,100,29.70,5.0,SE,18.4,23.0,N/A,,Overcast,140,2013-04-10 10:35:00
5:55 AM,73.8,73.8,100,29.70,5.0,SE,17.3,25.3,N/A,,Mostly Cloudy,140,2013-04-10 10:55:00
6:15 AM,73.6,73.6,100,29.70,5.0,SE,15.0,23.0,N/A,,Overcast,130,2013-04-10 11:15:00
6:35 AM,73.6,73.6,100,29.70,5.0,SE,18.4,24.2,N/A,,Overcast,140,2013-04-10 11:35:00
6:55 AM,73.8,73.8,100,29.70,5.0,SE,16.1,20.7,N/A,,Overcast,130,2013-04-10 11:55:00
7:15 AM,73.9,73.9,100,29.70,5.0,SE,13.8,24.2,N/A,,Overcast,130,2013-04-10 12:15:00
7:35 AM,74.1,74.1,100,29.70,5.0,SE,16.1,23.0,N/A,,Overcast,130,2013-04-10 12:35:00
7:55 AM,74.3,74.3,100,29.70,5.0,SE,16.1,24.2,N/A,,Overcast,130,2013-04-10 12:55:00
8:15 AM,74.8,74.8,100,29.70,5.0,SE,16.1,23.0,N/A,,Overcast,130,2013-04-10 13:15:00
8:35 AM,75.4,75.4,100,29.70,5.0,SE,19.6,26.5,N/A,,Overcast,130,2013-04-10 13:35:00
8:55 AM,76.1,76.1,100,29.70,5.0,SE,20.7,27.6,N/A,,Overcast,130,2013-04-10 13:55:00
9:15 AM,76.3,76.3,100,29.71,5.0,SE,23.0,27.6,N/A,,Overcast,140,2013-04-10 14:15:00
9:35 AM,76.6,76.6,100,29.72,5.0,SE,24.2,32.2,N/A,,Overcast,130,2013-04-10 14:35:00
9:55 AM,77.4,76.5,97,29.73,5.0,SE,23.0,31.1,N/A,,Overcast,140,2013-04-10 14:55:00
10:15 AM,78.8,71.6,78,29.74,5.0,SSE,18.4,24.2,N/A,,Haze,150,2013-04-10 15:15:00
10:35 AM,79.7,72.5,79,29.75,5.0,SSE,21.9,27.6,N/A,,Haze,150,2013-04-10 15:35:00
10:55 AM,80.1,72.3,77,29.75,5.0,SSE,21.9,29.9,N/A,,Haze,160,2013-04-10 15:55:00
11:15 AM,80.4,72.1,76,29.75,5.0,SSE,17.3,26.5,N/A,,Haze,160,2013-04-10 16:15:00
11:35 AM,80.4,72.1,76,29.76,5.0,SSE,19.6,29.9,N/A,,Haze,160,2013-04-10 16:35:00
11:55 AM,79.9,72.0,77,29.77,5.0,SSE,18.4,28.8,N/A,,Haze,160,2013-04-10 16:55:00
12:15 PM,79.2,72.1,79,29.77,5.0,South,15.0,21.9,N/A,,Haze,180,2013-04-10 17:15:00
12:35 PM,79.5,72.3,79,29.77,5.0,South,20.7,24.2,N/A,,Haze,180,2013-04-10 17:35:00
12:55 PM,78.8,71.6,78,29.77,5.0,South,17.3,27.6,N/A,,Haze,180,2013-04-10 17:55:00
1:15 PM,80.4,72.3,76,29.75,5.0,South,18.4,23.0,N/A,,Haze,170,2013-04-10 18:15:00
1:35 PM,80.4,72.3,76,29.75,5.0,South,20.7,24.2,N/A,,Haze,180,2013-04-10 18:35:00
1:55 PM,80.1,72.1,77,29.75,5.0,South,18.4,25.3,N/A,,Haze,180,2013-04-10 18:55:00
2:15 PM,79.3,72.1,79,29.74,5.0,South,19.6,23.0,N/A,,Haze,170,2013-04-10 19:15:00
2:35 PM,79.5,72.3,79,29.74,5.0,South,15.0,-,N/A,,Haze,170,2013-04-10 19:35:00
2:55 PM,55.4,58.8,100,29.77,7.0,NW,18.4,28.8,N/A,Rain,Light Rain,310,2013-04-10 19:55:00
3:15 PM,56.5,56.3,99,29.77,3.0,NNW,13.8,-,N/A,Rain,Light Rain,330,2013-04-10 20:15:00
3:35 PM,55.4,55.4,100,29.77,5.0,NNW,16.1,19.6,0.01,,Light Drizzle,330,2013-04-10 20:35:00
3:55 PM,54.7,54.7,100,29.77,2.5,NNW,15.0,18.4,0.01,,Drizzle,330,2013-04-10 20:55:00
4:15 PM,54.3,54.3,100,29.76,2.0,North,16.1,19.6,N/A,,Drizzle,350,2013-04-10 21:15:00
4:35 PM,54.0,54.0,100,29.76,2.5,North,15.0,-,0.01,Rain,Light Rain,350,2013-04-10 21:35:00
4:55 PM,53.6,53.6,100,29.75,4.0,North,11.5,17.3,0.01,,Overcast,350,2013-04-10 21:55:00
5:15 PM,53.8,53.8,100,29.75,3.0,North,12.7,19.6,N/A,,Overcast,350,2013-04-10 22:15:00
5:35 PM,53.8,53.8,100,29.75,7.0,North,12.7,20.7,N/A,,Overcast,350,2013-04-10 22:35:00
5:55 PM,53.8,53.8,100,29.76,7.0,North,15.0,20.7,N/A,,Overcast,350,2013-04-10 22:55:00
6:15 PM,53.4,53.4,100,29.76,4.0,North,11.5,17.3,N/A,,Overcast,350,2013-04-10 23:15:00
6:35 PM,53.2,53.2,100,29.76,2.0,NNW,13.8,17.3,N/A,,Overcast,340,2013-04-10 23:35:00
6:55 PM,53.4,53.4,100,29.76,2.5,North,12.7,-,N/A,,Overcast,350,2013-04-10 23:55:00
7:15 PM,53.6,53.6,100,29.77,3.0,North,12.7,18.4,N/A,,Overcast,360,2013-04-11 00:15:00
7:35 PM,53.4,53.4,100,29.77,4.0,North,12.7,20.7,N/A,,Overcast,360,2013-04-11 00:35:00
7:55 PM,53.4,53.4,100,29.78,4.0,North,13.8,18.4,N/A,,Overcast,350,2013-04-11 00:55:00
8:15 PM,53.4,53.4,100,29.78,5.0,North,15.0,-,N/A,,Overcast,350,2013-04-11 01:15:00
8:35 PM,53.6,53.6,100,29.79,5.0,North,13.8,19.6,N/A,,Overcast,360,2013-04-11 01:35:00
8:55 PM,53.6,53.6,100,29.80,5.0,North,16.1,21.9,N/A,Rain,Light Rain,350,2013-04-11 01:55:00
9:15 PM,53.4,53.4,100,29.80,7.0,North,17.3,24.2,0.01,Rain,Light Rain,360,2013-04-11 02:15:00
9:35 PM,53.2,53.2,100,29.81,7.0,North,15.0,-,0.01,Rain,Light Rain,360,2013-04-11 02:35:00
9:55 PM,52.9,52.9,100,29.81,7.0,North,13.8,20.7,0.01,Rain,Light Rain,360,2013-04-11 02:55:00
10:15 PM,52.9,52.9,100,29.82,10.0,North,15.0,20.7,N/A,,Overcast,350,2013-04-11 03:15:00
10:35 PM,52.9,52.9,100,29.82,10.0,North,16.1,19.6,N/A,,Overcast,360,2013-04-11 03:35:00
10:55 PM,52.5,52.5,100,29.82,7.0,North,15.0,21.9,N/A,,Light Drizzle,360,2013-04-11 03:55:00
11:15 PM,52.0,52.0,100,29.83,3.0,North,13.8,21.9,0.11,Rain,Rain,360,2013-04-11 04:15:00
11:35 PM,51.8,51.8,100,29.83,4.0,North,11.5,-,0.12,,Light Drizzle,360,2013-04-11 04:35:00
11:55 PM,51.6,51.6,100,29.83,3.0,North,13.8,19.6,0.12,,Light Drizzle,350,2013-04-11 04:55:00